Vertical_Velocity
3 4 -1 -0 6 3 -3 6 1 -2 -2 5 0 -6 -2 -0 1 10 5 0 6 -2 5 -2 3 -3 4 -2 2 -7 -4 -3 -4 -3 -2 -2 -1 1 1 4 3 -0 -3 -6
-15 0 -2 -3 -7 1 2 -5 2 -4 3 4 -1 -0 16 1 -4 -1 5 -4 1 0 -1 -2 -3 -3 -1 8 -7 -4 -3 -1 -1 1 -1 -1 -2 3 1 8 -4 -1 3 2
0 -2 8 11 -5 2 3 1 24 1 3 -1 -0 -4 -3 10 5 -9 1 4 9 -4 2 2 -0 -9 -4 -1 4 -5 -3 -0 -0 -3 -1 3 -0 4 0 -1 -2 -3 -0 -1
1 1 -2 -1 1 -2 -3 3 -5 3 -4 1 -4 5 3 2 6 4 -13 0 -13 -4 2 3 3 -2 -3 2 9 -6 -2 -2 -3 -1 2 2 0 5 -0 5 0 -1 0 -0
2 -5 -0 -4 -9 -2 1 2 -1 2 -0 -1 -1 7 6 -2 9 8 -4 -7 -19 -9 -3 -2 -2 7 -1 -1 -2 9 3 2 4 -2 1 -1 -4 -4 -0 0 3 4 8 5
-1 -9 5 5 -1 2 1 -0 2 -2 -2 -2 20 4 8 -4 -10 -12 12 -1 0 -4 -5 -4 7 2 3 2 0 2 -1 1 3 0 2 1 4 1 -4 -3 -4 -5 -7 -7
7 1 16 10 3 2 1 2 -0 -1 1 0 0 -3 12 9 5 2 0 -10 -2 -1 -8 -10 2 -5 6 0 0 1 2 2 0 -3 -5 -0 -1 -1 -4 -5 -6 -3 -3 -4
-14 -1 -1 -5 2 -0 6 3 -3 -4 -2 0 -2 -3 -3 -5 -2 -1 -1 11 4 1 -4 -8 3 1 4 2 -1 1 4 1 2 -1 -5 -7 -4 -3 -2 -1 -0 2 0 -3
1 1 7 3 1 -2 6 -1 0 -5 1 -2 -5 -14 -6 -2 -3 -3 -2 4 7 2 -3 -2 7 3 5 1 -3 -1 5 3 3 1 -2 -3 -3 0 -2 0 -1 -2 1 -2
4 -10 -5 13 7 -11 3 3 3 1 -4 -0 6 2 1 -6 -0 -1 -4 3 -0 -8 0 4 4 6 2 -1 -5 -4 3 5 4 1 -2 2 1 2 0 2 1 1 -1 -1
8 6 -11 -3 -6 -3 4 -0 3 2 -2 -5 8 3 -5 1 1 -3 -5 -6 2 6 -0 1 0 1 4 7 -0 -7 -4 6 6 2 -1 -1 0 -2 -0 -1 -1 2 1 -1
3 2 -2 4 -5 4 1 7 14 1 4 -5 3 17 -1 3 1 -0 -1 -3 -1 1 1 -3 -2 0 1 2 7 -1 -9 -2 6 6 -4 1 0 5 4 2 1 1 3 3
12 -8 -3 -2 -1 5 2 3 3 -2 2 3 -1 11 -1 2 3 -2 0 -3 -1 -3 -5 -2 -0 2 3 1 4 3 -4 -6 -4 4 0 -2 1 -2 -1 -2 -0 -0 -1 -0
1 -1 -1 -1 1 -2 -5 2 3 2 -2 3 2 3 -4 2 2 1 5 11 11 2 -3 -5 -5 -5 -2 3 6 1 -3 -3 -1 1 0 -5 -1 0 2 3 -1 -1 -1 -1
-2 -0 -2 -2 -1 -3 -6 -3 5 -3 0 -4 7 -3 4 -8 -2 -6 -4 -1 1 -3 -7 -12 -8 -6 -8 -6 -3 3 4 2 3 2 -2 -3 -1 -1 -1 -2 -2 -2 -3 -4
2 -2 -3 1 -2 0 -3 2 1 3 5 -1 1 1 3 1 -1 -2 -3 -7 -4 4 0 -13 -7 -1 -2 -3 2 3 0 2 1 -1 -0 -6 -0 -2 -3 -2 -2 -2 -3 -2
1 4 -0 1 -1 -2 -5 9 -1 0 2 2 -3 -1 1 -11 -6 -0 6 5 9 1 13 9 -13 -10 -5 -3 -2 -3 -1 -1 -2 0 -0 1 -0 -1 -1 -2 -4 -1 1 1
-3 4 0 2 -1 -3 0 1 1 5 -4 -2 -10 -1 4 -1 0 -0 -6 0 -2 -3 4 6 14 -0 -10 -3 -0 -0 1 1 0 -1 0 4 4 4 1 1 1 1 -1 -1
8 5 -1 -6 -0 3 -1 2 2 -0 -3 -1 -1 -2 6 -3 -1 -0 -1 -1 -2 -3 -5 1 10 9 8 5 -3 -2 -2 -3 -1 3 -1 -2 -2 -1 -2 2 4 4 7 5
3 -0 -2 -0 -1 -1 -0 -2 2 -1 -6 4 0 -2 -4 8 -1 1 -3 -1 0 -5 4 6 2 0 1 1 -0 1 2 3 2 1 -2 -1 -2 -2 2 1 -2 2 3 0
-0 2 -1 -2 -2 1 -2 5 -3 -4 0 2 2 3 1 -2 7 -3 1 -0 6 -1 -3 0 -1 -5 -3 2 1 -0 1 -2 -6 -2 0 -1 0 3 2 3 3 3 -0 2
-0 -1 -1 1 0 1 -1 -1 0 -2 1 1 1 -3 -0 3 5 -3 -14 -4 2 8 1 -2 -2 -0 0 -1 -1 -2 -5 -0 -1 -3 -2 -1 0 2 2 4 3 1 1 8
-2 -0 -1 -1 1 -2 1 -0 0 1 4 -4 -4 1 2 1 -5 6 -3 -1 -1 4 3 -1 -0 2 3 -0 -1 -1 3 0 1 3 4 3 3 3 0 4 4 7 -0 -1
-1 2 2 2 -4 -3 -0 -6 -2 -1 2 -2 -1 1 1 1 -2 -1 -2 -1 -0 3 4 2 3 0 -2 2 4 2 1 2 3 3 3 0 1 2 2 3 -1 3 1 -4
1 -3 -2 4 -3 -10 -1 -8 -6 -5 -7 1 3 -1 -3 1 1 2 1 -1 -5 -3 -1 1 1 1 1 1 0 -0 -1 -1 -1 0 1 0 1 1 2 0 -0 2 4 4
-6 5 1 -1 4 -1 9 2 -1 -3 -5 -8 5 -2 1 -1 2 -0 -0 -1 -2 -3 -1 -2 0 1 1 -1 -2 -0 0 -0 -2 -1 -2 -1 -1 1 1 1 3 -1 -0 3
Height
5762 5765 5766 5770 5771 5774 5777 5780 5781 5785 5787 5790 5790 5790 5790 5792 5794 5795 5794 5795 5799 5796 5799 5800 5800 5798 5799 5799 5797 5799 5799 5799 5799 5796 5794 5793 5791 5789 5787 5785 5784 5780 5776 5770
5763 5765 5768 5770 5771 5773 5778 5779 5782 5784 5787 5790 5788 5789 5792 5791 5792 5791 5792 5793 5796 5796 5796 5798 5798 5797 5798 5799 5797 5797 5796 5796 5794 5792 5790 5788 5786 5785 5784 5782 5777 5772 5770 5765
5764 5767 5768 5772 5772 5774 5777 5779 5783 5786 5788 5789 5789 5789 5790 5792 5792 5788 5789 5793 5795 5796 5798 5798 5799 5796 5796 5795 5793 5794 5793 5791 5789 5788 5785 5784 5783 5781 5778 5775 5771 5767 5763 5759
5764 5766 5770 5770 5772 5774 5775 5778 5780 5784 5786 5788 5788 5791 5789 5789 5792 5792 5788 5788 5787 5789 5792 5794 5795 5794 5793 5791 5790 5788 5787 5786 5784 5784 5782 5781 5779 5777 5774 5771 5767 5762 5758 5753
5764 5763 5770 5770 5771 5773 5777 5778 5781 5784 5783 5783 5786 5789 5789 5786 5790 5790 5788 5787 5785 5786 5788 5790 5791 5791 5789 5788 5787 5785 5784 5783 5782 5780 5779 5776 5772 5769 5765 5762 5759 5754 5749 5742
5763 5765 5769 5771 5772 5775 5777 5779 5780 5780 5780 5781 5786 5785 5783 5786 5784 5785 5788 5785 5786 5784 5783 5784 5786 5785 5786 5785 5784 5783 5782 5780 5778 5776 5773 5770 5766 5762 5758 5753 5747 5741 5735 5728
5764 5765 5767 5769 5772 5774 5775 5776 5777 5778 5777 5779 5778 5777 5780 5782 5782 5784 5785 5786 5786 5783 5781 5781 5781 5781 5781 5781 5780 5780 5779 5776 5773 5769 5765 5761 5757 5752 5747 5741 5736 5731 5724 5717
5763 5764 5763 5764 5769 5771 5772 5773 5773 5772 5774 5776 5774 5772 5774 5776 5778 5778 5780 5782 5781 5780 5778 5778 5777 5777 5778 5777 5775 5774 5773 5770 5767 5762 5757 5751 5747 5743 5738 5732 5726 5719 5712 5705
5759 5761 5762 5763 5765 5768 5771 5770 5771 5769 5771 5773 5772 5773 5770 5769 5772 5773 5773 5776 5777 5776 5775 5776 5775 5776 5775 5772 5770 5768 5766 5764 5760 5755 5749 5743 5738 5733 5726 5720 5713 5706 5700 5692
5755 5757 5757 5759 5761 5762 5767 5769 5770 5768 5768 5771 5772 5770 5768 5768 5769 5769 5770 5772 5772 5770 5770 5770 5771 5771 5770 5766 5763 5760 5757 5755 5751 5746 5739 5734 5727 5722 5715 5709 5702 5694 5687 5679
5752 5754 5757 5757 5757 5761 5763 5764 5766 5766 5765 5766 5769 5768 5768 5768 5767 5764 5762 5763 5764 5765 5764 5764 5764 5764 5763 5761 5756 5751 5747 5744 5741 5736 5728 5722 5715 5709 5703 5697 5690 5682 5675 5667
5746 5750 5753 5757 5757 5760 5760 5762 5762 5761 5763 5760 5763 5766 5764 5765 5764 5763 5762 5760 5760 5761 5760 5759 5758 5757 5754 5751 5747 5742 5737 5732 5729 5724 5717 5709 5703 5696 5690 5683 5677 5670 5663 5655
5746 5746 5749 5752 5755 5756 5755 5756 5756 5755 5756 5758 5759 5762 5760 5761 5760 5759 5759 5757 5756 5755 5753 5750 5748 5747 5744 5741 5737 5731 5725 5720 5715 5711 5704 5695 5689 5682 5676 5671 5664 5657 5649 5641
5742 5743 5746 5749 5751 5750 5749 5751 5751 5751 5751 5753 5755 5755 5755 5755 5753 5752 5752 5753 5753 5749 5745 5740 5737 5734 5730 5727 5725 5719 5713 5708 5703 5697 5691 5682 5676 5670 5664 5658 5650 5642 5634 5626
5737 5739 5741 5743 5745 5743 5742 5745 5746 5745 5746 5747 5751 5749 5751 5747 5745 5743 5742 5742 5742 5741 5736 5729 5727 5723 5719 5715 5711 5708 5702 5696 5691 5685 5677 5670 5664 5658 5651 5643 5635 5627 5619 5611
5733 5734 5735 5736 5737 5737 5737 5740 5741 5742 5743 5743 5745 5746 5746 5744 5742 5741 5739 5737 5735 5732 5731 5726 5721 5716 5711 5706 5703 5697 5691 5685 5678 5671 5664 5657 5652 5644 5636 5629 5621 5613 5605 5595
5725 5727 5728 5730 5730 5731 5733 5737 5735 5737 5738 5739 5739 5739 5738 5736 5736 5735 5734 5733 5730 5726 5723 5717 5711 5707 5702 5696 5691 5686 5680 5673 5666 5659 5653 5646 5638 5631 5624 5615 5607 5599 5589 5580
5720 5720 5721 5724 5725 5725 5730 5729 5731 5733 5731 5732 5731 5732 5733 5732 5730 5728 5725 5722 5720 5715 5711 5707 5701 5694 5689 5684 5678 5672 5667 5661 5655 5648 5642 5635 5627 5619 5610 5602 5593 5584 5573 5563
5713 5715 5716 5717 5719 5722 5723 5725 5727 5727 5726 5727 5727 5726 5726 5725 5722 5719 5716 5712 5708 5704 5699 5693 5690 5686 5679 5672 5665 5660 5654 5648 5642 5636 5629 5622 5614 5606 5597 5588 5579 5568 5558 5547
5709 5710 5711 5713 5714 5716 5718 5719 5721 5720 5720 5722 5721 5720 5718 5717 5714 5711 5707 5702 5697 5692 5689 5684 5680 5673 5666 5660 5654 5649 5643 5637 5631 5623 5615 5608 5600 5593 5583 5573 5563 5553 5543 5534
5704 5705 5706 5707 5709 5711 5713 5715 5715 5716 5718 5714 5714 5712 5710 5708 5705 5700 5695 5691 5687 5683 5676 5670 5665 5659 5653 5648 5642 5636 5630 5623 5616 5610 5602 5594 5585 5577 5567 5558 5547 5538 5528 5518
5701 5702 5703 5705 5706 5707 5708 5709 5710 5709 5708 5707 5705 5703 5700 5697 5693 5687 5681 5679 5676 5671 5665 5659 5654 5648 5642 5636 5631 5626 5619 5613 5605 5597 5588 5579 5571 5562 5552 5543 5532 5521 5513 5505
5698 5700 5700 5702 5702 5702 5702 5702 5702 5702 5701 5698 5695 5693 5689 5684 5679 5675 5671 5668 5664 5659 5653 5647 5642 5637 5631 5626 5620 5614 5608 5600 5592 5584 5575 5565 5556 5547 5536 5527 5518 5507 5497 5489
5693 5694 5695 5696 5695 5695 5695 5694 5693 5693 5692 5689 5685 5681 5677 5672 5668 5663 5658 5655 5651 5647 5641 5636 5630 5625 5620 5614 5608 5601 5594 5586 5578 5568 5559 5550 5540 5530 5521 5512 5503 5494 5484 5475
5688 5688 5688 5689 5687 5686 5685 5683 5682 5679 5677 5676 5672 5669 5665 5661 5657 5653 5648 5643 5638 5633 5628 5623 5618 5612 5606 5600 5593 5586 5578 5570 5561 5552 5543 5533 5524 5514 5505 5496 5489 5482 5474 5465
5680 5680 5681 5681 5681 5680 5679 5675 5673 5670 5666 5664 5660 5656 5652 5649 5644 5640 5634 5629 5624 5619 5614 5610 5604 5598 5592 5584 5577 5570 5562 5554 5545 5536 5527 5517 5508 5498 5490 5483 5477 5468 5461 5453